Regional Weather Roundup
Issued by NWS Upton, NY

Current Version | Previous Version | Text Only | Print | Product List | Glossary On
Versions: 1 2 3 4 5 6 7 8 9 10 11 12 13 14 15 16 17 18 19 20 21 22 23 24 25 26 27 28 29 30 31 32 33 34 35 36 37 38 39 40 41 42 43 44 45 46 47 48 49 50
000
ASUS41 KOKX 282008
RWROKX

REGIONAL WEATHER ROUNDUP
NATIONAL WEATHER SERVICE NEW YORK NY
400 PM EDT WED SEP 28 2016

NOTE: "FAIR" INDICATES FEW OR NO CLOUDS BELOW 12,000 FEET WITH NO
SIGNIFICANT WEATHER AND/OR OBSTRUCTIONS TO VISIBILITY.

NYZ071-072-176-178-NJZ106-104-282100-
NEW YORK CITY METRO AREA

CITY           SKY/WX    TMP DP  RH WIND       PRES   REMARKS
Central Park   CLOUDY    66  55  67 E15G26    30.15F
LaGuardia APRT CLOUDY    68  56  65 NE21      30.13S
Kennedy INTL   CLOUDY    67  55  65 NE14      30.14S
Newark/Liberty PTSUNNY   68  57  68 NE17      30.12S
Bronx Bot Gard   N/A     64  52  63 NW9       30.15S
Wall St Helipt CLOUDY    70  61  73 NE18      30.12F
Teterboro      CLOUDY    67  54  63 NE13G20   30.12S
$$

NYZ177-179-078>081-282100-
LONG ISLAND NEW YORK

CITY           SKY/WX    TMP DP  RH WIND       PRES   REMARKS
Farmingdale    CLOUDY    64  56  75 NE10      30.14S
MacArthur/ISP  CLOUDY    64  55  72 NE14G20   30.15R
Shirley        CLOUDY    64  56  75 VRB5      30.16
Riverhead      NOT AVBL
Westhampton    CLOUDY    63  55  75 NE17G24   30.16S
Southampton      N/A     63  57  82 NE12      30.12S
Bridgehampton    N/A     61  57  88 E5        30.02R
East Hampton   CLOUDY    61  56  83 NE12G18   30.16R
Montauk          N/A     62  57  83 NE13G23   30.18R
$$

NYZ052-065-067-282100-
HUDSON VALLEY

CITY           SKY/WX    TMP DP  RH WIND       PRES   REMARKS
White Plains   PTSUNNY   62  52  69 NE10G18   30.16S
Newburgh       PTSUNNY   66  55  68 E12       30.18R
Montgomery     MOSUNNY   68  55  63 SE7       30.15F
Poughkeepsie   CLOUDY    63  51  65 E12G18    30.17R
Albany         PTSUNNY   66  51  58 E8        30.20R
$$

NJZ001-105-106-008-010-013-015-019>022-104-282100-
NEW JERSEY

CITY           SKY/WX    TMP DP  RH WIND       PRES   REMARKS
Newark/Liberty PTSUNNY   68  57  68 NE17      30.12S
Teterboro      CLOUDY    67  54  63 NE13G20   30.12S
Caldwell       CLOUDY    66  56  70 E9        30.13S
Morristown     PTSUNNY   66  59  77 E14G21    30.12
Somerville     CLOUDY    71  58  63 E6        30.09S
Linden         NOT AVBL
Sussex         PTSUNNY   68  57  68 NE13G18   30.13F
Abdover          N/A     66  56  70 VRB3      30.13S
Trenton        CLOUDY    69  60  73 E14G20    30.09R
Millville      CLOUDY    70  67  90 E12       30.04S
Atlantic City  CLOUDY    68  64  87 NE21G29   30.05S
Wrightstown    LGT RAIN  64  63  94 NE15      30.07R FOG
Toms River     LGT RAIN  64  62  93 NE17      30.11R FOG
Belmar         CLOUDY    63  60  90 NE17G24   30.11S
$$

PAZ047>061-062-071-282100-
EASTERN PENNSYLVANIA

CITY           SKY/WX    TMP DP  RH WIND       PRES   REMARKS
Philadelphia   CLOUDY    71  63  75 E13       30.07S
Allentown      CLOUDY    69  59  70 E8        30.10R
Scranton       PTSUNNY   67  54  63 CALM      30.12R
$$

CTZ002-004>006-009-010-012-RIZ004-006-007-MAZ004-011-015-282100-
SOUTHERN NEW ENGLAND
 IN CT

CITY           SKY/WX    TMP DP  RH WIND       PRES   REMARKS
Bradley INTL   CLOUDY    60  50  69 NE10      30.23R
Hartford       CLOUDY    61  51  70 NE9       30.21R
Danbury        CLOUDY    60  51  72 E9        30.20R
Wtrbury/Oxford CLOUDY    59  48  67 E12       30.20S
Bridgeport     CLOUDY    65  52  62 NE15      30.17R
Meriden        CLOUDY    62  51  67 NE8G20    30.20S
New Haven      CLOUDY    63  52  67 NE10G22   30.18S
Chester        CLOUDY    59  54  82 NE13G22   30.19R
Groton         CLOUDY    63  54  72 NE18G29   30.17R
Wilimantic     CLOUDY    60  52  74 NE14G22   30.22R

 IN RI

CITY           SKY/WX    TMP DP  RH WIND       PRES   REMARKS
Providence     CLOUDY    57  52  83 NE17G29   30.23R
Block Island   CLOUDY    60  57  89 NE17G28   30.17R
Westerly       CLOUDY    61  53  75 NE12G21   30.19R
 IN MA

CITY           SKY/WX    TMP DP  RH WIND       PRES   REMARKS
Boston         CLOUDY    56  52  86 NE16G24   30.27R
Worcester      CLOUDY    52  48  86 NE12G23   30.25R
Westfield      CLOUDY    60  51  72 E8        30.23R
Provincetown   CLOUDY    59  56  89 NE16G26   30.22R
Nantucket      CLOUDY    61  58  90 NE22G31   30.15R FOG
$$

ANZ330-335-338-340-345-350-353-355-282100-
COASTAL MARINE OBSERVATIONS


STATION/POSITION TIME  SKY/WX   TEMP    WIND        PRES    VSBY  WAVE
                                AIR SEA DIR/SP/G                  HT/PER
                 (UTC)          (F)     (DEG/KT/KT) (MB)    (MI)  (FT/S)
NY HARB ENTRANCE 1950            65 71   50/ 21/ 25 1019.4          7/ 7
20S FIRE ISLAND  1950            65 69   50/ 25/ 29 1018.8          9/ 7
GREAT SOUTH BAY  1930            64 69   50/ 17/ 21   N/A
23 SSW MONTAUK P 1950            63 67   40/ 25/ 31 1020.2          8/ 6
15 E BARNEGAT LI 1930               71                N/A           7/ 6
HUDSON CANYON    1850            68 68              1017.4          6/ 6
KINGS POINT      1936            65 72              1020.6
EXECUTION ROCKS  1930            66      60/ 17/ 23   N/A
CENTRAL LI SOUND 1915            65 72   50/ 16/ 19   N/A           3/ 5
EASTERN LI SOUND NOT AVBL
ROBBINS REEF     1936            66      70/ 20/ 23 1019.9
$$


>>>>>>>>>>>>>>>>>>>>>>>>>>>> KEY <<<<<<<<<<<<<<<<<<<<<<<<<<<
>                                                          <
>     SKY/WX - Sky Condition/Present Weather               <
>     TMP    - Temperature in Fahrenheit                   <
>     DP     - Dew Point in Fahrenheit                     <
>     RH     - Relative Humidity in Percent                <
>     WIND   - Direction (from) and Speed in MPH           <
>     PRES   - Mean Sea Level Pressure (inches of Hg)      <
>     WCI    - Wind Chill Index                            <
>     VSB    - VISIBILITY IN MILES                         <
>     HX     - HEAT INDEX                                  <
>     TC     - TEMPERATURE IN CELSIUS                      <
>     VRB    - VARIABLE WIND DIRECTION                     <
>                                                          <
>>>>>>>>>>>>>>>>>>>>>>>>>>>> KEY <<<<<<<<<<<<<<<<<<<<<<<<<<<



USA.gov is the U.S. government's official web portal to all federal, state and local government web resources and services.